[[{"header":{"parameterUnit":"m.s-1","parameterCategory":1,"la1":30.2991,"la2":30.254,"lo1":-89.0895,"lo2":-89.0444,"dy":0.0017,"dx":0.0017,"nx":28,"ny":28,"refTime":"2025-01-20T09:00:00:Z","depth":0,"parameterNumber":2,"parameterNumberName":"U-component_of_WINDS"},"data":[0,0,0,0,0,0,0,0,0,0,0,0,0,0,0,0,0,0,0,0,0,0,0,0,0,0,0,0,0,0,0,0,0,0,0,0,0,0,0,0,0,0,0,0,0,0,0,0,0,0,0,0,0,0,0,0,0,0,-1.1035,-1.1036,0,-1.1131,-1.1133,-1.1134,-1.1102,-1.11,-1.1098,-1.1096,-1.1195,-1.1199,-1.1204,0,0,0,0,0,0,0,0,0,0,0,0,0,-1.0821,-1.0825,-1.1034,-1.1036,-1.1037,-1.1131,-1.1133,-1.1134,-1.1103,-1.11,-1.1098,-1.1095,-1.1193,-1.1199,-1.1204,0,0,0,0,0,0,0,0,0,0,0,0,0,-1.0916,-1.0827,-1.1034,-1.1033,-1.1034,-1.1131,-1.1133,-1.1134,-1.1103,-1.11,-1.1097,-1.1094,-1.1191,-1.1198,-1.1205,-1.1309,0,0,-1.1226,-1.1229,0,0,0,0,0,0,0,0,-1.091,-1.0924,-1.1032,-1.1033,-1.1034,-1.1102,-1.1094,-1.1193,-1.1104,-1.1077,-1.1096,-1.1093,-1.1166,-1.1175,-1.12,-1.1314,-1.1318,-1.1226,-1.123,-1.1233,-1.1235,0,0,0,0,0,0,0,-1.0904,-1.0919,-1.1073,-1.1033,-1.1035,-1.1027,-1.1037,-1.1112,-1.1138,-1.1079,-1.1077,-1.1089,-1.1166,-1.1193,-1.1202,-1.132,-1.1226,-1.1232,-1.1236,-1.1239,-1.1525,-1.1528,0,0,0,0,0,0,-1.0897,-1.0914,-1.107,-1.1076,-1.0963,-1.1033,-1.1044,-1.1083,-1.1137,-1.1142,-1.1091,-1.1087,-1.1183,-1.1194,-1.1205,-1.1333,-1.1233,-1.124,-1.1244,-1.1521,-1.1526,-1.1529,0,0,0,0,0,0,-1.0892,-1.0911,-1.1066,-1.0994,-1.1013,-1.104,-1.1084,-1.1087,-1.1114,-1.1146,-1.1151,-1.1115,-1.1181,-1.1196,-1.1284,-1.1336,-1.1243,-1.1249,-1.1517,-1.1523,-1.1528,-1.1587,0,0,0,0,0,0,-1.0886,-1.091,-1.095,-1.0996,-1.1017,-1.1144,-1.1087,-1.1091,-1.1126,-1.1121,-1.1169,-1.1174,-1.118,-1.1274,-1.1291,-1.1343,-1.1254,-1.1513,-1.152,-1.1526,-1.1581,-1.1594,-1.1605,0,0,0,0,0,-1.0879,-1.0962,-1.0952,-1.0971,-1.1069,-1.1147,-1.1159,-1.1164,-1.113,-1.1171,-1.1192,-1.1173,-1.1326,-1.1283,-1.1302,-1.1357,-1.151,-1.1518,-1.1525,-1.1575,-1.1591,-1.1605,0,0,0,0,0,0,-1.0922,-1.0968,-1.0958,-1.1058,-1.1099,-1.1141,-1.1193,-1.1181,-1.1231,-1.1225,-1.1228,-1.124,-1.1331,-1.1352,-1.1303,-1.1461,-1.1413,-1.1425,-1.1445,-1.146,-1.1472,-1.1466,-1.126,0,0,0,0,0,-1.0943,-1.1003,-1.104,-1.1126,-1.1146,-1.1166,-1.12,-1.1201,-1.1243,-1.1259,-1.1287,-1.1328,-1.1385,-1.1423,-1.1478,-1.1583,-1.1593,-1.163,-1.1642,-1.1652,-1.1663,-1.1721,-1.1738,-1.1555,-1.1555,-1.1555,0,0,-1.0988,-1.1021,-1.1058,-1.1135,-1.1167,-1.1229,-1.1181,-1.1248,-1.1294,-1.1269,-1.1355,-1.1376,-1.1422,-1.152,-1.1564,-1.1541,-1.1715,-1.1662,-1.1669,-1.1675,-1.1731,-1.1748,-1.1763,-1.1561,-1.156,-1.1559,0,0,-1.1102,-1.1132,-1.1207,-1.1239,-1.1288,-1.13,-1.1318,-1.1362,-1.1376,-1.1461,-1.1444,-1.1498,-1.1597,-1.1631,-1.1661,-1.1787,-1.1772,-1.1804,-1.1869,-1.1925,-1.1939,-1.1952,-1.1999,-1.2015,-1.1815,-1.1815,-1.1815,0,-1.1152,-1.1245,-1.1247,-1.1317,-1.1351,-1.1331,-1.1408,-1.1438,-1.1502,-1.1526,-1.1499,-1.1623,-1.1652,-1.1758,-1.1789,-1.1813,-1.1834,-1.18,-1.1937,-1.195,-1.1962,-1.2006,-1.2024,-1.1819,-1.1818,-1.1818,-1.1817,0,-1.1304,-1.1369,-1.1423,-1.1486,-1.1526,-1.1599,-1.1612,-1.1652,-1.1649,-1.1664,-1.1752,-1.1786,-1.1848,-1.1872,-1.1869,-1.1978,-1.1962,-1.1936,-1.1888,-1.1983,-1.2025,-1.2042,-1.1824,-1.1823,-1.1822,-1.1821,0,0,-1.145,-1.1512,-1.1533,-1.1561,-1.1612,-1.1662,-1.1733,-1.1794,-1.1829,-1.1873,-1.1933,-1.2017,-1.1993,-1.2028,-1.2028,-1.2077,-1.2176,-1.2045,-1.2046,-1.207,-1.2299,-1.232,-1.234,-1.2165,-1.2168,-1.2171,-1.2296,0,-1.157,-1.1696,-1.17,-1.1815,-1.1876,-1.1857,-1.1919,-1.1957,-1.1972,-1.2025,-1.2042,-1.2102,-1.2065,-1.2086,-1.2134,-1.2154,-1.2223,-1.2144,-1.2222,-1.2225,-1.2214,-1.2362,-1.2384,-1.2501,-1.2312,-1.2315,-1.2317,0,-1.1727,-1.1777,-1.1898,-1.1941,-1.1966,-1.2022,-1.2079,-1.2129,-1.2171,-1.2179,-1.2217,-1.221,-1.2282,-1.223,-1.233,-1.2277,-1.2308,-1.2323,-1.2327,-1.2337,-1.2279,-1.2377,-1.2538,-1.2557,-1.2342,-1.234,-1.2338,0,-1.1824,-1.192,-1.2006,-1.2031,-1.2082,-1.2122,-1.2145,-1.2185,-1.2221,-1.2269,-1.2293,-1.2349,-1.238,-1.2423,-1.2431,-1.2392,-1.2532,-1.248,-1.2542,-1.2542,-1.2575,-1.2573,-1.2745,-1.2591,-1.259,-1.259,-1.259,0,-1.1959,-1.2034,-1.2051,-1.2104,-1.2188,-1.2191,-1.2274,-1.2294,-1.2329,-1.2385,-1.2371,-1.2424,-1.243,-1.2484,-1.249,-1.2573,-1.2587,-1.2596,-1.2597,-1.2599,-1.2598,-1.2621,-1.2614,-1.2595,-1.2594,-1.2593,-1.2592,0,-1.2082,-1.2096,-1.2189,-1.223,-1.2242,-1.2302,-1.2337,-1.2388,-1.2401,-1.2472,-1.2489,-1.2511,-1.2574,-1.2586,-1.266,-1.2664,-1.2764,-1.2755,-1.275,-1.275,-1.2812,-1.2807,-1.3007,-1.3034,-1.286,-1.2862,-1.2863,0,-1.2169,-1.2227,-1.2274,-1.2311,-1.2337,-1.2396,-1.2433,-1.2438,-1.2477,-1.2529,-1.2574,-1.2636,-1.2686,-1.2788,-1.281,-1.2867,-1.2862,-1.2928,-1.287,-1.287,-1.2865,-1.2863,-1.2869,-1.294,-1.2942,-1.2943,-1.2944,0,-1.2322,-1.2326,-1.238,-1.2437,-1.2482,-1.2527,-1.2569,-1.26,-1.261,-1.2655,-1.272,-1.2759,-1.2835,-1.2897,-1.2954,-1.2977,-1.2963,-1.2962,-1.298,-1.2983,-1.2979,-1.2984,-1.2783,-1.2958,-1.2957,-1.2956,-1.2955,-1.2954,-1.2431,-1.2482,-1.2524,-1.2585,-1.2617,-1.2657,-1.2707,-1.2727,-1.2781,-1.2845,-1.2843,-1.2915,-1.2955,-1.303,-1.3057,-1.3112,-1.3091,-1.3116,-1.3123,-1.313,-1.3137,-1.2968,-1.3122,-1.3122,-1.3122,-1.3121,-1.3121,0,-1.2585,-1.2611,-1.2667,-1.2727,-1.2775,-1.2757,-1.2803,-1.2844,-1.2908,-1.2947,-1.2996,-1.3071,-1.3131,-1.3157,-1.3216,-1.3256,-1.3251,-1.3271,-1.327,-1.3276,-1.3152,-1.3132,-1.3275,-1.3275,-1.3275,-1.3274,-1.3274,-1.3274,-1.2671,-1.2757,-1.2766,-1.2867,-1.2892,-1.2963,-1.2991,-1.3028,-1.3059,-1.3143,-1.3193,-1.321,-1.3244,-1.3305,-1.3359,-1.3365,-1.3388,-1.3412,-1.3416,-1.33,-1.3284,-1.327,-1.3251,-1.3417,-1.3417,-1.3536,-1.3537,-1.3537]},{"header":{"parameterUnit":"m.s-1","parameterCategory":1,"la1":30.2991,"la2":30.254,"lo1":-89.0895,"lo2":-89.0444,"dy":0.0017,"dx":0.0017,"nx":28,"ny":28,"refTime":"2025-01-20T09:00:00:Z","depth":0,"parameterNumber":3,"parameterNumberName":"V-component_of_WINDS"},"data":[0,0,0,0,0,0,0,0,0,0,0,0,0,0,0,0,0,0,0,0,0,0,0,0,0,0,0,0,0,0,0,0,0,0,0,0,0,0,0,0,0,0,0,0,0,0,0,0,0,0,0,0,0,0,0,0,0,0,-7.6516,-7.6517,0,-7.6652,-7.6653,-7.6655,-7.6521,-7.6516,-7.651,-7.6505,-7.6637,-7.6645,-7.6654,0,0,0,0,0,0,0,0,0,0,0,0,0,-7.6133,-7.6141,-7.6516,-7.6517,-7.6519,-7.6651,-7.6653,-7.6655,-7.6522,-7.6515,-7.6509,-7.6503,-7.6635,-7.6644,-7.6655,0,0,0,0,0,0,0,0,0,0,0,0,0,-7.6287,-7.6143,-7.6515,-7.6469,-7.6466,-7.6651,-7.6653,-7.6656,-7.6523,-7.6515,-7.6507,-7.65,-7.6631,-7.6643,-7.6656,-7.6892,0,0,-7.6695,-7.67,0,0,0,0,0,0,0,0,-7.6278,-7.6301,-7.6474,-7.6472,-7.6469,-7.6561,-7.6566,-7.6735,-7.6525,-7.6501,-7.6505,-7.6496,-7.6618,-7.6631,-7.6674,-7.6898,-7.6904,-7.6696,-7.6703,-7.6709,-7.6712,0,0,0,0,0,0,0,-7.6268,-7.6294,-7.6569,-7.6476,-7.6474,-7.6438,-7.6451,-7.6598,-7.6602,-7.6503,-7.6493,-7.6512,-7.6615,-7.6662,-7.6676,-7.6906,-7.6695,-7.6706,-7.6714,-7.6719,-7.7329,-7.7337,0,0,0,0,0,0,-7.6263,-7.6286,-7.6565,-7.6573,-7.6353,-7.6452,-7.6466,-7.654,-7.66,-7.6602,-7.6518,-7.6505,-7.6644,-7.6661,-7.668,-7.696,-7.6709,-7.672,-7.6728,-7.7321,-7.7331,-7.734,0,0,0,0,0,0,-7.6256,-7.6289,-7.6559,-7.6427,-7.6459,-7.6467,-7.655,-7.6546,-7.6593,-7.6612,-7.6611,-7.6566,-7.6639,-7.6662,-7.684,-7.6963,-7.6726,-7.6738,-7.731,-7.7324,-7.7336,-7.7523,0,0,0,0,0,0,-7.6245,-7.6287,-7.6379,-7.6431,-7.6467,-7.6721,-7.6558,-7.6555,-7.6616,-7.66,-7.6656,-7.6658,-7.6634,-7.6822,-7.6853,-7.6976,-7.6747,-7.7299,-7.7316,-7.7332,-7.7506,-7.7541,-7.757,0,0,0,0,0,-7.6232,-7.6425,-7.6384,-7.6419,-7.6582,-7.6728,-7.6748,-7.6719,-7.6627,-7.6718,-7.6729,-7.6656,-7.6944,-7.6842,-7.6875,-7.7004,-7.7292,-7.7312,-7.733,-7.7491,-7.7534,-7.757,0,0,0,0,0,0,-7.6385,-7.6431,-7.6386,-7.6602,-7.6663,-7.6705,-7.6819,-7.6765,-7.6851,-7.6832,-7.679,-7.6804,-7.6993,-7.7015,-7.69,-7.7235,-7.7103,-7.713,-7.7213,-7.7254,-7.7286,-7.7276,-7.6758,0,0,0,0,0,-7.6444,-7.6562,-7.6594,-7.6781,-7.6814,-7.6812,-7.6874,-7.6847,-7.6907,-7.6931,-7.6955,-7.7014,-7.7117,-7.7187,-7.7283,-7.7508,-7.7518,-7.7612,-7.7645,-7.7671,-7.7695,-7.7815,-7.7858,-7.7404,-7.7404,-7.7404,0,0,-7.6567,-7.6606,-7.6683,-7.6813,-7.6856,-7.6977,-7.6834,-7.6967,-7.7055,-7.695,-7.7121,-7.7141,-7.7203,-7.7407,-7.7497,-7.7431,-7.7823,-7.7696,-7.7717,-7.7727,-7.784,-7.7883,-7.7921,-7.7417,-7.7415,-7.7413,0,0,-7.6852,-7.6895,-7.7055,-7.7102,-7.7171,-7.7168,-7.7207,-7.7258,-7.7269,-7.744,-7.7363,-7.7466,-7.7645,-7.7693,-7.7741,-7.8045,-7.798,-7.8077,-7.8246,-7.8364,-7.8399,-7.8431,-7.8539,-7.8579,-7.8101,-7.8101,-7.8101,0,-7.6996,-7.7177,-7.7144,-7.7284,-7.7343,-7.7255,-7.7416,-7.7462,-7.7558,-7.76,-7.7525,-7.7749,-7.7785,-7.7998,-7.8072,-7.8113,-7.8155,-7.8071,-7.8397,-7.8428,-7.8457,-7.856,-7.8601,-7.8112,-7.8111,-7.811,-7.8109,0,-7.7349,-7.7476,-7.7597,-7.7695,-7.7767,-7.7917,-7.7905,-7.7981,-7.7947,-7.7952,-7.8126,-7.8166,-7.8269,-7.8317,-7.8284,-7.8526,-7.8483,-7.8404,-7.827,-7.8513,-7.8608,-7.8648,-7.8129,-7.8125,-7.8121,-7.8118,0,0,-7.7736,-7.7814,-7.7859,-7.7903,-7.7972,-7.8068,-7.8212,-7.8315,-7.8382,-7.845,-7.857,-7.8724,-7.8651,-7.8705,-7.8677,-7.878,-7.9018,-7.8688,-7.8688,-7.8748,-7.9286,-7.9346,-7.9392,-7.8976,-7.8983,-7.8989,-7.9281,0,-7.8024,-7.8279,-7.8253,-7.8494,-7.861,-7.8528,-7.8654,-7.8709,-7.8717,-7.8814,-7.882,-7.8931,-7.8827,-7.8859,-7.8958,-7.8969,-7.9126,-7.8947,-7.9085,-7.909,-7.9073,-7.9442,-7.9506,-7.978,-7.9318,-7.9325,-7.9329,0,-7.8394,-7.8479,-7.8733,-7.8785,-7.8832,-7.8947,-7.9039,-7.9133,-7.9193,-7.9191,-7.9253,-7.9206,-7.9349,-7.9212,-7.9408,-7.9287,-7.9341,-7.9355,-7.9365,-7.9377,-7.9225,-7.9465,-7.9867,-7.9908,-7.9388,-7.9383,-7.9379,0,-7.8651,-7.8828,-7.9003,-7.9042,-7.9107,-7.9189,-7.9219,-7.9271,-7.9335,-7.9415,-7.9455,-7.955,-7.9602,-7.9674,-7.9654,-7.9556,-7.9854,-7.9715,-7.9855,-7.9856,-7.9922,-7.9919,-8.0339,-7.9957,-7.9956,-7.9955,-7.9955,0,-7.8976,-7.9134,-7.912,-7.9228,-7.9402,-7.937,-7.9542,-7.9561,-7.9609,-7.9717,-7.965,-7.9752,-7.9718,-7.9818,-7.9802,-7.9967,-7.999,-7.9991,-7.9985,-7.9998,-7.9998,-8.0034,-8.0014,-7.9966,-7.9964,-7.9962,-7.996,0,-7.9293,-7.929,-7.9475,-7.9522,-7.9537,-7.9664,-7.9702,-7.9802,-7.9804,-7.9942,-7.9972,-7.9976,-8.009,-8.0076,-8.0203,-8.0192,-8.0396,-8.0367,-8.0378,-8.0371,-8.0512,-8.0499,-8.0971,-8.1031,-8.0609,-8.0613,-8.0616,0,-7.9501,-7.9622,-7.9682,-7.9751,-7.9788,-7.99,-7.9965,-7.9937,-8.0007,-8.0084,-8.0175,-8.0284,-8.0369,-8.0555,-8.0567,-8.0663,-8.0635,-8.0794,-8.0649,-8.0659,-8.0638,-8.0632,-8.0644,-8.0823,-8.0828,-8.0831,-8.0835,0,-7.9871,-7.9863,-7.9962,-8.006,-8.0141,-8.0216,-8.0284,-8.0343,-8.0322,-8.0404,-8.0521,-8.0588,-8.0718,-8.0826,-8.0917,-8.0945,-8.0887,-8.088,-8.0918,-8.0932,-8.0934,-8.0935,-8.0456,-8.0869,-8.0866,-8.0863,-8.0862,-8.086,-8.014,-8.0243,-8.0303,-8.0414,-8.0463,-8.0528,-8.0625,-8.064,-8.0739,-8.0845,-8.0821,-8.0954,-8.1008,-8.1125,-8.1162,-8.1264,-8.1205,-8.126,-8.1273,-8.1288,-8.1305,-8.0918,-8.128,-8.1279,-8.1278,-8.1277,-8.1276,0,-8.0506,-8.0541,-8.0644,-8.0743,-8.083,-8.077,-8.0842,-8.0918,-8.1037,-8.1094,-8.118,-8.1315,-8.1419,-8.144,-8.1539,-8.1616,-8.1592,-8.1643,-8.1638,-8.1645,-8.1351,-8.1309,-8.1661,-8.1661,-8.1661,-8.1661,-8.1661,-8.1661,-8.0708,-8.088,-8.088,-8.1074,-8.1106,-8.1238,-8.1284,-8.1343,-8.1389,-8.1544,-8.1631,-8.1645,-8.1687,-8.1789,-8.1881,-8.1884,-8.1924,-8.1986,-8.1979,-8.1704,-8.1666,-8.1629,-8.1589,-8.1995,-8.1996,-8.2265,-8.2267,-8.2269]}]]